Погода в Чемеровцах

Украина / Хмельницкая область     49°00′43″N   26°21′07″E
темп.,
°C
ветер,
м/с
пор.,
м/с
влажн.,
%
обл.,
%
осадки,
мм/ч
давл.,
гПа
погр.,
м
16 апреля, пт
пт1600:00+2зсз5988100 0.0 1016626
03:00+2зсз5994100 0.1 1016642
06:00+2зсз51192100 0.0 1015595
09:00+2зсз81287100 0.0 1015699
12:00+4з81284100 0.1 1015892
15:00+4зсз71291100 0.4 1016949
18:00+5зсз7128194 0.3 10161091
21:00+4зсз5119297 0.3 1017762
17 апреля, сб
сб1700:00+3з41297100 0.1 1017628
03:00+4з41096100 0.6 1018729
06:00+3з41197100 0.6 1018724
09:00+3з4998100 1.3 1019583
12:00+4зсз3896100 0.3 1020462
15:00+5ссз458796 0.3 1020554
18:00+6с338485 0.0 1020532
21:00+4ссв349188 0.0 1021303
18 апреля, вс
вс1800:00+4ссв239123 0.0 1020107
03:00+3ссв239352 0.0 102078
06:00+2св1194100 0.0 102010
09:00+5ссв118072 0.0 1020301
12:00+10ссв226396 0.0 1018699
15:00+13всв115190 0.0 10171341
18:00+13всв2250100 0.0 10161446
21:00+10всв3562100 0.1 101794
19 апреля, пн
пн1900:00+9юв1375100 0.0 1017108
03:00+8всв3587100 0.0 1016173
06:00+7в3692100 0.0 1016258
09:00+8в5675100 0.0 1015497
12:00+8всв5575100 0.3 1015669
15:00+10всв4566100 0.3 1013863
18:00+12всв5753100 0.0 10101573
21:00+8св61168100 0.1 1010598
20 апреля, вт
вт2000:00+7ссв61171100 0.0 1009638
03:00+6с61075100 0.0 1008659
06:00+6с71179100 0.0 1006802
09:00+6ссз81176100 0.1 10051209
12:00+8ссз81271100 0.1 10051449
15:00+9сз81266100 0.2 10051536
18:00+10сз813635 0.1 10051584
21:00+8сз7127381 0.1 1007794